• In Uzbekistan
  • List of Countries
  • For 7 days
  • Water Temperature
  • Satellite Maps
  • Weather Map
  • Weather Widgets
  • user-avatar
    Login

    Hourly Weather Boa Vista

    Today, 16 December, Saturday

    Time Temperature Precipitation Wind Pressure Humidity
    00:00 +29°C° 0 mm 4 mps 752 mmHg 65%
    01:00 +29°C° 0 mm 4 mps 752 mmHg 65%
    02:00 +28°C° 0 mm 4 mps 752 mmHg 66%
    03:00 +28°C° 0 mm 4 mps 752 mmHg 67%
    04:00 +28°C° 0 mm 3 mps 752 mmHg 68%
    05:00 +27°C° 0 mm 3 mps 752 mmHg 69%
    06:00 +28°C° 0 mm 4 mps 753 mmHg 67%
    07:00 +29°C° 0 mm 4 mps 753 mmHg 65%
    08:00 +29°C° 0 mm 5 mps 754 mmHg 62%
    09:00 +32°C° 0 mm 5 mps 753 mmHg 56%
    10:00 +33°C° 0 mm 4 mps 753 mmHg 49%
    11:00 +35°C° 0 mm 4 mps 753 mmHg 43%
    12:00 +36°C° 0 mm 4 mps 752 mmHg 40%
    13:00 +37°C° 0 mm 4 mps 751 mmHg 36%
    14:00 +38°C° 0 mm 4 mps 750 mmHg 33%
    15:00 +38°C° 0 mm 3 mps 750 mmHg 34%
    16:00 +38°C° 0 mm 3 mps 749 mmHg 35%
    17:00 +37°C° 0 mm 2 mps 748 mmHg 36%
    18:00 +36°C° 0 mm 3 mps 749 mmHg 40%
    19:00 +34°C° 0 mm 3 mps 749 mmHg 44%
    20:00 +31°C° 0 mm 3 mps 750 mmHg 48%
    21:00 +31°C° 0 mm 3 mps 750 mmHg 51%
    22:00 +32°C° 0 mm 4 mps 751 mmHg 53%
    23:00 +30°C° 0 mm 4 mps 751 mmHg 56%

    Tomorrow, 17 December, Sunday

    Time Temperature Precipitation Wind Pressure Humidity
    00:00 +30°C° 0 mm 4 mps 751 mmHg 58%
    01:00 +29°C° 0 mm 4 mps 751 mmHg 60%
    02:00 +29°C° 0 mm 4 mps 751 mmHg 63%
    03:00 +28°C° 0 mm 4 mps 751 mmHg 64%
    04:00 +28°C° 0 mm 4 mps 752 mmHg 65%
    05:00 +27°C° 0 mm 4 mps 752 mmHg 67%
    06:00 +28°C° 0 mm 4 mps 752 mmHg 65%
    07:00 +29°C° 0 mm 5 mps 753 mmHg 63%
    08:00 +29°C° 0 mm 5 mps 753 mmHg 60%
    09:00 +32°C° 0 mm 5 mps 753 mmHg 54%
    10:00 +34°C° 0 mm 5 mps 753 mmHg 48%
    11:00 +36°C° 0 mm 5 mps 753 mmHg 42%
    12:00 +37°C° 0 mm 4 mps 752 mmHg 39%
    13:00 +38°C° 0 mm 4 mps 751 mmHg 36%
    14:00 +40°C° 0 mm 4 mps 750 mmHg 33%
    15:00 +38°C° 0 mm 3 mps 750 mmHg 34%
    16:00 +38°C° 0 mm 3 mps 749 mmHg 35%
    17:00 +38°C° 0 mm 3 mps 749 mmHg 36%
    18:00 +36°C° 0 mm 3 mps 749 mmHg 39%
    19:00 +34°C° 0 mm 3 mps 750 mmHg 43%
    20:00 +33°C° 0 mm 3 mps 750 mmHg 46%
    21:00 +31°C° 0 mm 3 mps 751 mmHg 49%
    22:00 +32°C° 0 mm 4 mps 751 mmHg 52%
    23:00 +30°C° 0 mm 4 mps 752 mmHg 55%

    Day after tomorrow, 18 December, Monday

    Time Temperature Precipitation Wind Pressure Humidity
    00:00 +30°C° 0 mm 4 mps 752 mmHg 57%
    01:00 +29°C° 0 mm 4 mps 751 mmHg 59%
    02:00 +29°C° 0 mm 4 mps 751 mmHg 61%
    03:00 +28°C° 0 mm 3 mps 751 mmHg 64%
    04:00 +28°C° 0 mm 3 mps 751 mmHg 66%
    05:00 +28°C° 0 mm 3 mps 751 mmHg 68%
    06:00 +28°C° 0 mm 4 mps 752 mmHg 66%
    07:00 +29°C° 0 mm 4 mps 753 mmHg 64%
    08:00 +30°C° 0 mm 5 mps 753 mmHg 61%
    09:00 +32°C° 0 mm 4 mps 753 mmHg 55%
    10:00 +34°C° 0 mm 4 mps 753 mmHg 49%
    11:00 +36°C° 0 mm 4 mps 753 mmHg 44%
    12:00 +37°C° 0 mm 4 mps 752 mmHg 40%
    13:00 +38°C° 0 mm 4 mps 751 mmHg 37%
    14:00 +39°C° 0 mm 3 mps 750 mmHg 34%
    15:00 +38°C° 0 mm 3 mps 749 mmHg 35%
    16:00 +38°C° 0 mm 3 mps 749 mmHg 36%
    17:00 +38°C° 0 mm 2 mps 748 mmHg 37%
    18:00 +36°C° 0 mm 2 mps 749 mmHg 41%
    19:00 +35°C° 0 mm 3 mps 750 mmHg 45%
    20:00 +33°C° 0 mm 3 mps 751 mmHg 48%
    21:00 +33°C° 0.1 mm 3 mps 751 mmHg 52%
    22:00 +31°C° 0.1 mm 3 mps 752 mmHg 56%
    23:00 +30°C° 0.1 mm 4 mps 752 mmHg 60%

    19 December, Tuesday

    Time Temperature Precipitation Wind Pressure Humidity
    00:00 +30°C° 0.1 mm 4 mps 752 mmHg 62%
    01:00 +29°C° 0.1 mm 3 mps 752 mmHg 65%
    02:00 +29°C° 0.1 mm 3 mps 752 mmHg 67%
    03:00 +28°C° 0 mm 3 mps 752 mmHg 70%
    04:00 +28°C° 0 mm 3 mps 752 mmHg 72%
    05:00 +27°C° 0 mm 3 mps 752 mmHg 74%
    06:00 +28°C° 0 mm 3 mps 752 mmHg 71%
    07:00 +29°C° 0 mm 4 mps 753 mmHg 67%
    08:00 +30°C° 0 mm 4 mps 754 mmHg 63%
    09:00 +32°C° 0 mm 4 mps 753 mmHg 56%
    10:00 +34°C° 0 mm 4 mps 753 mmHg 50%
    11:00 +36°C° 0 mm 4 mps 753 mmHg 43%
    12:00 +37°C° 0 mm 4 mps 752 mmHg 40%
    13:00 +38°C° 0 mm 3 mps 751 mmHg 37%
    14:00 +38°C° 0 mm 3 mps 749 mmHg 35%
    15:00 +38°C° 0 mm 3 mps 749 mmHg 36%
    16:00 +38°C° 0 mm 2 mps 749 mmHg 37%
    17:00 +37°C° 0 mm 2 mps 748 mmHg 38%
    18:00 +36°C° 0 mm 3 mps 749 mmHg 43%
    19:00 +34°C° 0 mm 3 mps 750 mmHg 49%
    20:00 +33°C° 0 mm 3 mps 751 mmHg 54%
    21:00 +32°C° 0.2 mm 4 mps 751 mmHg 60%
    22:00 +30°C° 0.2 mm 4 mps 752 mmHg 65%
    23:00 +29°C° 0.2 mm 4 mps 752 mmHg 71%

    20 December, Wednesday

    Time Temperature Precipitation Wind Pressure Humidity
    00:00 +28°C° 0 mm 3 mps 752 mmHg 72%
    01:00 +28°C° 0 mm 3 mps 752 mmHg 73%
    02:00 +27°C° 0 mm 3 mps 751 mmHg 75%
    03:00 +27°C° 0 mm 3 mps 751 mmHg 74%
    04:00 +27°C° 0 mm 3 mps 751 mmHg 74%
    05:00 +27°C° 0 mm 3 mps 752 mmHg 74%
    06:00 +28°C° 0 mm 3 mps 752 mmHg 71%
    07:00 +29°C° 0 mm 4 mps 753 mmHg 67%
    08:00 +30°C° 0 mm 4 mps 754 mmHg 63%
    09:00 +32°C° 0 mm 4 mps 753 mmHg 57%
    10:00 +34°C° 0 mm 4 mps 753 mmHg 51%
    11:00 +36°C° 0 mm 4 mps 752 mmHg 45%
    12:00 +36°C° 0 mm 4 mps 751 mmHg 43%
    13:00 +37°C° 0 mm 4 mps 750 mmHg 41%
    14:00 +38°C° 0 mm 3 mps 749 mmHg 38%
    15:00 +37°C° 0 mm 3 mps 749 mmHg 40%
    16:00 +37°C° 0 mm 3 mps 749 mmHg 42%
    17:00 +36°C° 0 mm 2 mps 748 mmHg 43%
    18:00 +35°C° 0 mm 3 mps 749 mmHg 48%
    19:00 +34°C° 0 mm 3 mps 750 mmHg 52%
    20:00 +33°C° 0 mm 3 mps 750 mmHg 56%
    21:00 +31°C° 0.1 mm 3 mps 750 mmHg 59%
    22:00 +30°C° 0.1 mm 3 mps 751 mmHg 63%
    23:00 +29°C° 0.1 mm 3 mps 751 mmHg 66%

    21 December, Thursday

    Time Temperature Precipitation Wind Pressure Humidity
    00:00 +29°C° 0 mm 3 mps 751 mmHg 67%
    01:00 +28°C° 0 mm 3 mps 751 mmHg 68%
    02:00 +28°C° 0 mm 3 mps 750 mmHg 68%
    03:00 +28°C° 0 mm 3 mps 750 mmHg 69%
    04:00 +28°C° 0 mm 3 mps 751 mmHg 69%
    05:00 +27°C° 0 mm 3 mps 751 mmHg 70%
    06:00 +28°C° 0 mm 3 mps 752 mmHg 67%
    07:00 +29°C° 0 mm 4 mps 752 mmHg 65%
    08:00 +30°C° 0 mm 4 mps 753 mmHg 62%
    09:00 +32°C° 0 mm 4 mps 753 mmHg 56%
    10:00 +34°C° 0 mm 4 mps 753 mmHg 50%
    11:00 +36°C° 0 mm 4 mps 752 mmHg 45%
    12:00 +36°C° 0 mm 4 mps 751 mmHg 43%
    13:00 +37°C° 0 mm 4 mps 750 mmHg 41%
    14:00 +38°C° 0 mm 4 mps 749 mmHg 39%
    15:00 +37°C° 0 mm 3 mps 749 mmHg 39%
    16:00 +37°C° 0 mm 3 mps 748 mmHg 40%
    17:00 +37°C° 0 mm 3 mps 748 mmHg 41%
    18:00 +36°C° 0 mm 3 mps 749 mmHg 44%
    19:00 +34°C° 0 mm 3 mps 749 mmHg 48%
    20:00 +33°C° 0 mm 3 mps 750 mmHg 51%
    21:00 +31°C° 0 mm 3 mps 750 mmHg 53%
    22:00 +32°C° 0 mm 4 mps 751 mmHg 55%
    23:00 +30°C° 0 mm 4 mps 751 mmHg 56%
    Show more